Budapest Ferihegy, Hungary

1:09 PM CEST on March 26, 2017 (GMT +0200)
Ferihegy

Weather History for LHBP - January, 2013

Change the Weather History Date:

Monday, January 28, 2013

  Actual Average Record
Temperature  
Mean Temperature 30 °F -  
Max Temperature 32 °F 40 °F 59 °F (2002)
Min Temperature 28 °F 24 °F 6 °F (2006)
Degree Days  
Heating Degree Days 35    
Moisture  
Dew Point 29 °F    
Average Humidity 97    
Maximum Humidity 100    
Minimum Humidity 87    
Precipitation  
Precipitation 0.00 in - - ()
Sea Level Pressure  
Sea Level Pressure 29.99 in    
Wind  
Wind Speed 5 mph ()    
Max Wind Speed 10 mph    
Max Gust Speed -    
Visibility 1.5 miles    
Events Snow    
Averages and records for this station are not official NWS values.
T = Trace of Precipitation, MM = Missing Value Source: Averaged Metar Reports

Daily Weather History Graph

Daily Weather History Graph

Search for Another Location

Airport or City:

Trip Planner

Search our weather history database for the weather conditions in past years. The results will help you decide how hot, cold, wet, or windy it might be!

Date:

Astronomy

Jan. 28, 2013 Rise Set
Actual Time 7:13 AM CET 4:38 PM CET
Civil Twilight 6:40 AM CET 5:11 PM CET
Nautical Twilight 6:03 AM CET 5:48 PM CET
Astronomical Twilight 5:27 AM CET 6:24 PM CET
Moon 6:25 PM CET (1/28) 7:21 AM CET (1/28)
Length of Visible Light 10h 31m
Length of Day
9h 24m
Full, 98% of the Moon is Illuminated
Jan 28
Full
Feb 3
Last Quarter
Feb 10
New
Feb 17
First Quarter
Feb 25
Full

Hourly Weather History & Observations

Time (CET) Temp. Windchill Dew Point Humidity Pressure Visibility Wind Dir Wind Speed Gust Speed Precip Events Conditions
12:00 AM 28.4 °F 22.2 °F 26.6 °F 93% 29.89 in 2.5 mi SE 5.8 mph - N/A   Mostly Cloudy
12:30 AM 28.4 °F 22.2 °F 26.6 °F 93% 29.89 in 2.5 mi SE 5.8 mph - N/A   Mostly Cloudy
1:00 AM 28.4 °F 21.2 °F 26.6 °F 93% 29.92 in 2.5 mi East 6.9 mph - N/A   Mostly Cloudy
1:30 AM 28.4 °F 19.7 °F 26.6 °F 93% 29.89 in 2.5 mi East 9.2 mph - N/A   Mostly Cloudy
2:00 AM 30.2 °F 21.3 °F 28.4 °F 93% 29.89 in 3.1 mi ESE 10.4 mph - N/A   Mostly Cloudy
2:30 AM 28.4 °F 19.7 °F 26.6 °F 93% 29.89 in 3.1 mi SE 9.2 mph - N/A   Mostly Cloudy
3:00 AM 30.2 °F 22.6 °F 28.4 °F 93% 29.89 in 3.1 mi SE 8.1 mph - N/A   Mostly Cloudy
3:30 AM 30.2 °F 23.4 °F 28.4 °F 93% 29.89 in 3.1 mi SE 6.9 mph - N/A   Mostly Cloudy
4:00 AM 28.4 °F 22.2 °F 28.4 °F 100% 29.89 in 2.5 mi SE 5.8 mph - N/A Snow Light Snow
4:30 AM 28.4 °F 21.2 °F 28.4 °F 100% 29.89 in - SE 6.9 mph - N/A Snow Light Snow
5:00 AM 28.4 °F 20.4 °F 28.4 °F 100% 29.89 in - SE 8.1 mph - N/A Snow Light Snow
5:30 AM 28.4 °F 22.2 °F 28.4 °F 100% 29.89 in - SE 5.8 mph - N/A Snow Light Snow
6:00 AM 28.4 °F 22.2 °F 28.4 °F 100% 29.92 in - SE 5.8 mph - N/A Snow Light Snow
6:30 AM 28.4 °F 23.3 °F 28.4 °F 100% 29.92 in 0.9 mi ESE 4.6 mph - N/A Snow Light Snow
7:00 AM 28.4 °F 22.2 °F 28.4 °F 100% 29.92 in 0.7 mi ESE 5.8 mph - N/A Snow Snow
7:30 AM 28.4 °F 22.2 °F 28.4 °F 100% 29.92 in 0.9 mi ESE 5.8 mph - N/A Snow Light Snow
8:00 AM 28.4 °F 21.2 °F 28.4 °F 100% 29.92 in 1.1 mi East 6.9 mph - N/A Snow Light Snow
8:30 AM 28.4 °F 23.3 °F 28.4 °F 100% 29.95 in 1.0 mi ESE 4.6 mph - N/A Snow Light Snow
9:00 AM 30.2 °F 24.3 °F 28.4 °F 93% 29.95 in 0.9 mi ESE 5.8 mph - N/A Snow Light Snow
9:30 AM 30.2 °F 23.4 °F 28.4 °F 93% 29.95 in 1.0 mi SE 6.9 mph - N/A Snow Light Snow
10:00 AM 30.2 °F 23.4 °F 28.4 °F 93% 29.95 in 1.0 mi SE 6.9 mph - N/A Snow Light Snow
10:30 AM 30.2 °F 25.4 °F 28.4 °F 93% 29.95 in 0.9 mi SE 4.6 mph - N/A Snow Snow
11:00 AM 30.2 °F 26.7 °F 28.4 °F 93% 29.98 in 0.7 mi Variable 3.5 mph - N/A Snow Snow
11:30 AM 30.2 °F - 28.4 °F 93% 29.98 in 0.6 mi Variable 2.3 mph - N/A Snow Snow
12:00 PM 30.2 °F 26.7 °F 30.2 °F 100% 29.98 in 0.6 mi Variable 3.5 mph - N/A Snow Snow
12:30 PM 30.2 °F 26.7 °F 30.2 °F 100% 29.98 in 0.6 mi Variable 3.5 mph - N/A Snow Snow
1:00 PM 30.2 °F - 28.4 °F 93% 29.98 in 0.9 mi Variable 2.3 mph - N/A Snow Snow
1:30 PM 30.2 °F - 30.2 °F 100% 29.98 in 0.7 mi Variable 2.3 mph - N/A Snow Snow
2:00 PM 32.0 °F - 30.2 °F 93% 30.01 in 1.1 mi Calm Calm - N/A Snow Light Snow
2:30 PM 32.0 °F - 30.2 °F 93% 30.01 in 1.6 mi Calm Calm - N/A Snow Light Snow
3:00 PM 32.0 °F - 30.2 °F 93% 30.01 in 1.9 mi Variable 1.2 mph - N/A Snow Light Snow
3:30 PM 32.0 °F 27.5 °F 28.4 °F 87% 30.04 in - NNW 4.6 mph - N/A Snow Light Snow
4:00 PM 32.0 °F 28.7 °F 28.4 °F 87% 30.04 in - Variable 3.5 mph - N/A Snow Light Snow
4:30 PM 32.0 °F 28.7 °F 32.0 °F 100% 30.04 in - Variable 3.5 mph - N/A Snow Light Snow
5:00 PM 32.0 °F - 32.0 °F 100% 30.06 in - Variable 2.3 mph - N/A Snow Light Snow
5:30 PM 32.0 °F - 32.0 °F 100% 30.06 in - Variable 1.2 mph - N/A Snow Light Snow
6:00 PM 30.2 °F - 30.2 °F 100% 30.06 in - Variable 2.3 mph - N/A Snow Light Snow
6:30 PM 30.2 °F - 30.2 °F 100% 30.06 in 1.9 mi Variable 1.2 mph - N/A Snow Light Snow
7:00 PM 30.2 °F 25.4 °F 30.2 °F 100% 30.09 in 1.9 mi WNW 4.6 mph - N/A Snow Light Snow
7:30 PM 30.2 °F - 30.2 °F 100% 30.09 in 1.6 mi Variable 1.2 mph - N/A   Mostly Cloudy
8:00 PM 30.2 °F - 30.2 °F 100% 30.09 in 1.2 mi Calm Calm - N/A   Overcast
8:30 PM 30.2 °F - 30.2 °F 100% 30.09 in 1.2 mi Variable 1.2 mph - N/A   Overcast
9:00 PM 30.2 °F - 30.2 °F 100% 30.09 in 1.2 mi Variable 1.2 mph - N/A   Overcast
9:30 PM 30.2 °F - 30.2 °F 100% 30.12 in 1.2 mi Variable 1.2 mph - N/A   Overcast
10:00 PM 30.2 °F - 30.2 °F 100% 30.12 in 1.2 mi Variable 2.3 mph - N/A   Overcast
10:30 PM 28.4 °F - 28.4 °F 100% 30.12 in 1.2 mi Variable 2.3 mph - N/A   Overcast
11:00 PM 28.4 °F 24.6 °F 28.4 °F 100% 30.12 in 1.2 mi Variable 3.5 mph - N/A   Overcast
11:30 PM 28.4 °F 23.3 °F 28.4 °F 100% 30.12 in 1.2 mi West 4.6 mph - N/A   Scattered Clouds